This is the latest recevied weather packets stored in our database for station/object W4ZHA. If no packets are shown the sender has not sent any weather packets the latest 10 day(s).
| Time | Temp. | Humidity | Pressure | Rain* | Wind** | Luminosity | Snow |
|---|---|---|---|---|---|---|---|
| 1778032042 | 22.78° C | 58% | 1011.6 hPa | 0 mm | - | 0 W/m² | - |
| 1778031738 | 22.78° C | 58% | 1011.6 hPa | 0 mm | - | 0 W/m² | - |
| 1778031435 | 22.78° C | 57% | 1011.6 hPa | 0 mm | - | 0 W/m² | - |
| 1778031132 | 22.78° C | 58% | 1011.3 hPa | 0 mm | - | 0 W/m² | - |
| 1778030828 | 22.22° C | 57% | 1011.3 hPa | 0 mm | - | 0 W/m² | - |
| 1778030525 | 22.78° C | 57% | 1011.3 hPa | 0 mm | - | 0 W/m² | - |
| 1778030223 | 22.78° C | 57% | 1011 hPa | 0 mm | - | 0 W/m² | - |
| 1778029918 | 22.78° C | 57% | 1011 hPa | 0 mm | - | 0 W/m² | - |
| 1778029617 | 22.78° C | 57% | 1011 hPa | 0 mm | - | 0 W/m² | - |
| 1778029314 | 22.78° C | 57% | 1011 hPa | 0 mm | - | 0 W/m² | - |
| 1778029011 | 22.78° C | 57% | 1011 hPa | 0 mm | - | 0 W/m² | - |
| 1778028708 | 22.22° C | 57% | 1011 hPa | 0 mm | - | 0 W/m² | - |
| 1778028404 | 22.22° C | 57% | 1011 hPa | 0 mm | - | 0 W/m² | - |
| 1778028102 | 22.22° C | 56% | 1011 hPa | 0 mm | - | 0 W/m² | - |
| 1778027798 | 22.22° C | 57% | 1011 hPa | 0 mm | - | 0 W/m² | - |
| 1778027494 | 22.22° C | 56% | 1011 hPa | 0 mm | - | 0 W/m² | - |
| 1778027190 | 22.78° C | 56% | 1011.3 hPa | 0 mm | - | 0 W/m² | - |
| 1778026886 | 22.22° C | 56% | 1011 hPa | 0 mm | - | 0 W/m² | - |
| 1778026582 | 21.67° C | 60% | 1011.3 hPa | 0 mm | - | 0 W/m² | - |
| 1778026280 | 21.67° C | 58% | 1011.3 hPa | 0 mm | - | 0 W/m² | - |
| 1778025977 | 21.67° C | 60% | 1011.3 hPa | 0 mm | - | 1 W/m² | - |
| 1778025674 | 21.67° C | 59% | 1011.3 hPa | 0 mm | - | 0 W/m² | - |
| 1778025372 | 21.67° C | 63% | 1011.3 hPa | 0 mm | - | 6 W/m² | - |
| 1778025069 | 22.22° C | 60% | 1011.3 hPa | 0 mm | - | 9 W/m² | - |
| 1778024766 | 22.22° C | 57% | 1011.3 hPa | 0 mm | - | 17 W/m² | - |
* Rain latest hour (hover to see other rain measurements)
** Current wind speed in m/s (hover to see current wind gust speed)